Location: Berlin
(38.3226°N, 75.2177°W)
Time: 17:59:55
(UTC+00:00)

CZ-4B R/B - Pass Details

Date: 26 October 2020
Orbit: 495 x 648 km, 97.8° (Epoch: 03 December)

Event Time Altitude Azimuth Distance (km) Brightness Sun altitude
Rises 09:35:10 0° 15° (NNE) 2,869 7.7 -21.4°
Reaches altitude 10° 09:37:26 10° 19° (NNE) 1,937 6.8 -21.0°
Maximum altitude 09:41:35 62° 100° (E) 652 4.4 -20.1°
Drops below altitude 10° 09:45:31 10° 182° (S) 1,830 6.5 -19.4°
Sets 09:47:35 0° 186° (S) 2,694 7.3 -19.0°
